When you browse on this site, cookies collect data to enhance your experience and personalize the content and advertising you see.
Visit our Privacy Policy to learn more. By continuing to use the site, you agree to this use of cookies and data.
  • In Czech Republic
  • List of Countries
  • For 7 days
  • Water Temperature
  • Weather Map
  • Weather Widgets
  • user-avatar
    Login

    Hourly Weather Bolgatanga

    Today, 16 September, Monday

    Time Temperature Precipitation Wind Pressure Humidity
    00:00 +27°C° 0 mm 1 mps 742 mmHg 89%
    01:00 +26°C° 0.1 mm 1 mps 742 mmHg 90%
    02:00 +26°C° 0.1 mm 1 mps 741 mmHg 90%
    03:00 +26°C° 0.1 mm 1 mps 741 mmHg 91%
    04:00 +25°C° 0.1 mm 1 mps 741 mmHg 91%
    05:00 +25°C° 0.1 mm 1 mps 741 mmHg 90%
    06:00 +25°C° 0.1 mm 1 mps 742 mmHg 90%
    07:00 +27°C° 0 mm 1 mps 742 mmHg 84%
    08:00 +28°C° 0 mm 2 mps 743 mmHg 79%
    09:00 +29°C° 0 mm 3 mps 743 mmHg 73%
    10:00 +30°C° 0.9 mm 2 mps 742 mmHg 70%
    11:00 +31°C° 0.9 mm 2 mps 742 mmHg 67%
    12:00 +32°C° 0.9 mm 1 mps 741 mmHg 64%
    13:00 +32°C° 0.8 mm 1 mps 741 mmHg 63%
    14:00 +33°C° 0.8 mm 1 mps 740 mmHg 61%
    15:00 +31°C° 0.8 mm 0 mps 739 mmHg 59%
    16:00 +32°C° 0 mm 1 mps 740 mmHg 64%
    17:00 +31°C° 0 mm 1 mps 740 mmHg 68%
    18:00 +30°C° 0 mm 1 mps 740 mmHg 72%
    19:00 +29°C° 0.1 mm 1 mps 740 mmHg 75%
    20:00 +29°C° 0.1 mm 2 mps 741 mmHg 78%
    21:00 +28°C° 0.1 mm 2 mps 742 mmHg 81%
    22:00 +27°C° 0.7 mm 2 mps 742 mmHg 84%
    23:00 +27°C° 0.7 mm 2 mps 742 mmHg 87%

    Tomorrow, 17 September, Tuesday

    Time Temperature Precipitation Wind Pressure Humidity
    00:00 +26°C° 0.7 mm 2 mps 741 mmHg 90%
    01:00 +26°C° 0.7 mm 1 mps 741 mmHg 91%
    02:00 +26°C° 0.7 mm 1 mps 741 mmHg 92%
    03:00 +25°C° 0.7 mm 1 mps 741 mmHg 94%
    04:00 +25°C° 2.4 mm 1 mps 741 mmHg 94%
    05:00 +25°C° 2.4 mm 1 mps 741 mmHg 94%
    06:00 +25°C° 2.4 mm 2 mps 742 mmHg 94%
    07:00 +26°C° 0.1 mm 2 mps 742 mmHg 93%
    08:00 +26°C° 0.1 mm 3 mps 742 mmHg 91%
    09:00 +27°C° 0.1 mm 3 mps 742 mmHg 90%
    10:00 +28°C° 0 mm 3 mps 742 mmHg 84%
    11:00 +30°C° 0 mm 3 mps 742 mmHg 77%
    12:00 +32°C° 0 mm 4 mps 741 mmHg 71%
    13:00 +31°C° 0.5 mm 3 mps 741 mmHg 71%
    14:00 +31°C° 0.5 mm 2 mps 740 mmHg 71%
    15:00 +31°C° 0.5 mm 2 mps 739 mmHg 71%
    16:00 +31°C° 0.3 mm 1 mps 740 mmHg 75%
    17:00 +30°C° 0.3 mm 1 mps 740 mmHg 78%
    18:00 +29°C° 0.3 mm 1 mps 740 mmHg 82%
    19:00 +28°C° 1.5 mm 1 mps 740 mmHg 86%
    20:00 +27°C° 1.5 mm 1 mps 741 mmHg 89%
    21:00 +27°C° 1.5 mm 1 mps 741 mmHg 92%
    22:00 +26°C° 1.9 mm 1 mps 741 mmHg 92%
    23:00 +26°C° 1.9 mm 2 mps 741 mmHg 92%

    Day after tomorrow, 18 September, Wednesday

    Time Temperature Precipitation Wind Pressure Humidity
    00:00 +26°C° 1.9 mm 2 mps 741 mmHg 92%
    01:00 +26°C° 0 mm 2 mps 741 mmHg 92%
    02:00 +26°C° 0 mm 1 mps 741 mmHg 93%
    03:00 +25°C° 0 mm 1 mps 741 mmHg 93%
    04:00 +25°C° 0 mm 1 mps 741 mmHg 93%
    05:00 +25°C° 0 mm 1 mps 741 mmHg 94%
    06:00 +25°C° 0 mm 1 mps 742 mmHg 94%
    07:00 +26°C° 0 mm 2 mps 742 mmHg 90%
    08:00 +27°C° 0 mm 2 mps 743 mmHg 87%
    09:00 +28°C° 0 mm 2 mps 743 mmHg 84%
    10:00 +29°C° 0 mm 2 mps 742 mmHg 81%
    11:00 +29°C° 0 mm 2 mps 742 mmHg 77%
    12:00 +30°C° 0 mm 2 mps 742 mmHg 74%
    13:00 +31°C° 0 mm 2 mps 741 mmHg 71%
    14:00 +31°C° 0 mm 2 mps 741 mmHg 69%
    15:00 +32°C° 0 mm 1 mps 740 mmHg 66%
    16:00 +31°C° 1 mm 1 mps 741 mmHg 72%
    17:00 +29°C° 1 mm 1 mps 741 mmHg 78%
    18:00 +28°C° 1 mm 1 mps 741 mmHg 84%
    19:00 +27°C° 2.4 mm 1 mps 742 mmHg 87%
    20:00 +27°C° 2.4 mm 1 mps 742 mmHg 91%
    21:00 +26°C° 2.4 mm 1 mps 743 mmHg 94%
    22:00 +26°C° 0 mm 1 mps 743 mmHg 94%
    23:00 +25°C° 0 mm 1 mps 743 mmHg 93%

    19 September, Thursday

    Time Temperature Precipitation Wind Pressure Humidity
    00:00 +25°C° 0 mm 1 mps 742 mmHg 93%
    01:00 +25°C° 0.1 mm 1 mps 742 mmHg 93%
    02:00 +23°C° 0.1 mm 0 mps 742 mmHg 93%
    03:00 +23°C° 0.1 mm 0 mps 741 mmHg 93%
    04:00 +23°C° 0.1 mm 0 mps 742 mmHg 93%
    05:00 +25°C° 0.1 mm 1 mps 742 mmHg 93%
    06:00 +25°C° 0.1 mm 1 mps 742 mmHg 93%
    07:00 +26°C° 0 mm 1 mps 742 mmHg 88%
    08:00 +27°C° 0 mm 1 mps 743 mmHg 83%
    09:00 +29°C° 0 mm 2 mps 743 mmHg 78%
    10:00 +29°C° 0 mm 1 mps 742 mmHg 78%
    11:00 +29°C° 0 mm 1 mps 742 mmHg 77%
    12:00 +27°C° 0 mm 0 mps 742 mmHg 77%
    13:00 +30°C° 0 mm 1 mps 742 mmHg 75%
    14:00 +30°C° 0 mm 2 mps 741 mmHg 72%
    15:00 +31°C° 0 mm 2 mps 741 mmHg 70%
    16:00 +30°C° 0 mm 2 mps 741 mmHg 73%
    17:00 +29°C° 0 mm 2 mps 741 mmHg 76%
    18:00 +28°C° 0 mm 1 mps 741 mmHg 79%
    19:00 +28°C° 0 mm 1 mps 741 mmHg 79%
    20:00 +27°C° 0 mm 1 mps 742 mmHg 80%
    21:00 +27°C° 0 mm 1 mps 742 mmHg 80%
    22:00 +27°C° 0 mm 1 mps 742 mmHg 81%
    23:00 +27°C° 0 mm 1 mps 742 mmHg 81%

    20 September, Friday

    Time Temperature Precipitation Wind Pressure Humidity
    00:00 +27°C° 0 mm 1 mps 742 mmHg 81%
    01:00 +26°C° 0 mm 1 mps 742 mmHg 81%
    02:00 +26°C° 0 mm 1 mps 742 mmHg 81%
    03:00 +26°C° 0 mm 1 mps 741 mmHg 82%
    04:00 +26°C° 0 mm 1 mps 741 mmHg 83%
    05:00 +25°C° 0 mm 1 mps 742 mmHg 83%
    06:00 +25°C° 0 mm 1 mps 742 mmHg 84%
    07:00 +27°C° 0 mm 2 mps 742 mmHg 81%
    08:00 +28°C° 0 mm 2 mps 743 mmHg 78%
    09:00 +30°C° 0 mm 3 mps 743 mmHg 75%
    10:00 +31°C° 0.3 mm 3 mps 743 mmHg 71%
    11:00 +33°C° 0.3 mm 3 mps 742 mmHg 66%
    12:00 +34°C° 0.3 mm 3 mps 742 mmHg 61%
    13:00 +34°C° 0 mm 3 mps 741 mmHg 61%
    14:00 +34°C° 0 mm 3 mps 741 mmHg 61%
    15:00 +35°C° 0 mm 3 mps 740 mmHg 61%
    16:00 +33°C° 0 mm 3 mps 740 mmHg 67%
    17:00 +31°C° 0 mm 2 mps 740 mmHg 73%
    18:00 +29°C° 0 mm 2 mps 740 mmHg 79%
    19:00 +28°C° 0 mm 2 mps 741 mmHg 82%
    20:00 +28°C° 0 mm 2 mps 741 mmHg 84%
    21:00 +27°C° 0 mm 2 mps 742 mmHg 87%
    22:00 +27°C° 0 mm 1 mps 742 mmHg 86%
    23:00 +27°C° 0 mm 1 mps 742 mmHg 85%

    21 September, Saturday

    Time Temperature Precipitation Wind Pressure Humidity
    00:00 +27°C° 0 mm 1 mps 742 mmHg 84%
    01:00 +27°C° 0 mm 1 mps 742 mmHg 83%
    02:00 +25°C° 0 mm 0 mps 742 mmHg 83%
    03:00 +25°C° 0 mm 0 mps 741 mmHg 82%
    04:00 +24°C° 0 mm 0 mps 742 mmHg 82%
    05:00 +24°C° 0 mm 0 mps 742 mmHg 82%
    06:00 +26°C° 0 mm 1 mps 742 mmHg 83%
    07:00 +27°C° 0 mm 1 mps 742 mmHg 79%
    08:00 +28°C° 0 mm 1 mps 743 mmHg 74%
    09:00 +30°C° 0 mm 1 mps 743 mmHg 70%
    10:00 +31°C° 0 mm 2 mps 743 mmHg 66%
    11:00 +32°C° 0 mm 2 mps 742 mmHg 62%
    12:00 +34°C° 0 mm 2 mps 742 mmHg 58%
    13:00 +35°C° 0 mm 2 mps 741 mmHg 56%
    14:00 +34°C° 0 mm 1 mps 741 mmHg 55%
    15:00 +34°C° 0 mm 1 mps 740 mmHg 53%
    16:00 +33°C° 0 mm 1 mps 740 mmHg 59%
    17:00 +32°C° 0 mm 1 mps 740 mmHg 65%
    18:00 +30°C° 0 mm 1 mps 740 mmHg 71%
    19:00 +30°C° 0 mm 1 mps 740 mmHg 72%
    20:00 +29°C° 0 mm 1 mps 741 mmHg 74%
    21:00 +28°C° 0 mm 2 mps 741 mmHg 76%
    22:00 +28°C° 0 mm 2 mps 741 mmHg 78%
    23:00 +28°C° 0 mm 2 mps 741 mmHg 80%
    Show more